Location: Remedello Sotto
(45.2500°N, 10.3667°E)
Time: 21:07:04
(UTC+00:00)

YAOGAN 1 - Visible Passes

Search period start: 05 October 2024 00:00
Search period end: 15 October 2024 00:00
Orbit: 610 x 612 km, 97.8° (Epoch: 05 October)

Date Brightness Start Highest point End Pass type
(mag) Time Alt. Az. Time Alt. Az. Time Alt. Az.
05 Oct 3.0 18:08:40 10° S 18:12:54 65° WSW 18:17:11 10° NNW visible
06 Oct 3.7 18:23:19 10° S 18:27:24 45° W 18:31:32 10° NNW visible
07 Oct 4.4 18:38:06 10° SSW 18:41:56 32° W 18:45:47 10° NNW visible
08 Oct 3.1 17:16:34 10° SE 17:20:27 35° ENE 17:24:22 10° N visible
08 Oct 4.9 18:53:04 10° SSW 18:56:28 23° W 18:59:54 10° NW visible
09 Oct 2.7 17:30:42 10° SSE 17:34:49 49° ENE 17:38:58 10° N visible
09 Oct 5.4 19:08:19 10° SW 19:11:03 16° W 19:13:46 10° NW visible
10 Oct 2.4 17:44:58 10° SSE 17:49:12 71° ENE 17:53:29 10° N visible
10 Oct 5.7 19:24:08 10° WSW 19:25:37 12° W 19:27:06 10° WNW visible
11 Oct 2.6 17:59:20 10° S 18:03:36 81° WSW 18:07:55 10° NNW visible
12 Oct 3.2 18:13:50 10° S 18:18:01 57° W 18:22:16 10° NNW visible
13 Oct 3.9 18:28:27 10° SSW 18:32:27 39° W 18:36:31 10° NNW visible
14 Oct 3.4 17:07:22 10° SE 17:11:03 29° ENE 17:14:44 10° N visible
14 Oct 4.5 18:43:14 10° SSW 18:46:55 28° W 18:50:38 10° NW visible
